Location: Allen Fire Department Station 4
(33.1073°N, 96.6988°W)
Time: 11:24:27
(UTC+00:00)

Cosmos 1500 Rocket - Pass Details

Date: 03 December 2021
Orbit: 602 x 632 km, 82.5° (Epoch: 24 January)

Event Time Altitude Azimuth Distance (km) Brightness Sun altitude
Rises 12:36:08 0° 187° (S) 2,891 7.2 -8.1°
Reaches altitude 10° 12:38:21 10° 189° (S) 1,993 6.3 -7.6°
Maximum altitude 12:42:47 81° 276° (W) 642 3.6 -6.8°
Drops below altitude 10° 12:47:15 10° 4° (N) 2,017 6.0 -5.9°
Sets 12:49:31 0° 6° (N) 2,929 6.8 -5.5°
